Location: Karlsruhe
(49.0131°N, 8.3874°E)
Time: 15:43:22
(UTC+01:00)

Tiangong 1 - Visible Passes

Search period start: 24 November 2017 00:00
Search period end: 04 December 2017 00:00
Orbit: 283 x 307 km, 42.8° (Epoch: 24 November)

Date Brightness Start Highest point End Pass type
(mag) Time Alt. Az. Time Alt. Az. Time Alt. Az.
27 Nov 3.3 18:00:49 10° S 18:01:32 11° SSE 18:02:12 10° SE visible
28 Nov 2.9 18:05:46 10° SSW 18:07:20 15° SSE 18:07:57 14° SSE visible
29 Nov 2.7 18:11:10 10° SW 18:13:03 18° S 18:13:34 17° SSE visible
30 Nov 2.6 18:16:39 10° SW 18:18:40 20° S 18:19:03 19° SSE visible
01 Dec 2.6 18:22:07 10° SW 18:24:08 20° S 18:24:26 19° S visible
02 Dec 2.9 18:27:36 10° SW 18:29:27 18° S 18:29:45 17° S visible
03 Dec 3.3 18:33:08 10° SW 18:34:36 14° SSW 18:35:00 14° S visible
